Time,TemperatureF,DewpointF,PressureIn,WindDirection,WindDirectionDegrees,WindSpeedMPH,WindSpeedGustMPH,Humidity,HourlyPrecipIn,Conditions,Clouds,dailyrainin,SoftwareType,DateUTC
2013-11-17 00:00:00,48.5,47.4,29.55,South,169,9.0,27.0,96,0.03,,---,0.00,VWS V14.01,2013-11-17 05:00:00,
2013-11-17 00:01:00,48.4,47.3,29.55,South,169,11.0,27.0,96,0.03,,---,0.08,VWS V14.01,2013-11-17 05:01:00,
2013-11-17 00:02:00,48.5,47.4,29.55,South,169,16.0,27.0,96,0.03,,---,0.08,VWS V14.01,2013-11-17 05:02:00,
2013-11-17 00:07:00,48.7,47.6,29.55,South,173,21.0,25.0,96,0.02,,---,0.00,VWS V14.01,2013-11-17 05:07:00,
2013-11-17 00:12:00,48.8,47.4,29.56,South,172,12.0,30.0,95,0.02,,---,0.00,VWS V14.01,2013-11-17 05:12:00,
2013-11-17 00:17:00,49.0,47.6,29.56,South,179,5.0,30.0,95,0.03,,---,0.01,VWS V14.01,2013-11-17 05:17:00,
2013-11-17 00:22:00,49.0,47.6,29.56,SSE,167,18.0,30.0,95,0.04,,---,0.02,VWS V14.01,2013-11-17 05:22:00,
2013-11-17 00:27:00,49.0,47.6,29.55,SSE,165,16.0,30.0,95,0.05,,---,0.03,VWS V14.01,2013-11-17 05:27:00,
2013-11-17 00:30:00,49.1,47.7,29.55,SSW,197,28.0,30.0,95,0.05,,---,0.03,VWS V14.01,2013-11-17 05:30:00,
2013-11-17 00:32:00,49.1,47.7,29.54,SSE,154,3.0,28.0,95,0.04,,---,0.03,VWS V14.01,2013-11-17 05:32:00,
2013-11-17 00:37:00,49.3,47.9,29.54,SE,135,13.0,30.0,95,0.05,,---,0.04,VWS V14.01,2013-11-17 05:37:00,
2013-11-17 00:42:00,49.4,48.0,29.54,South,169,35.0,35.0,95,0.05,,---,0.04,VWS V14.01,2013-11-17 05:42:00,
2013-11-17 00:47:00,49.6,48.2,29.54,SSE,159,22.0,35.0,95,0.05,,---,0.04,VWS V14.01,2013-11-17 05:47:00,
2013-11-17 00:52:00,49.6,48.2,29.55,South,191,8.0,35.0,95,0.05,,---,0.04,VWS V14.01,2013-11-17 05:52:00,
2013-11-17 00:57:00,49.6,48.2,29.54,SSE,154,12.0,35.0,95,0.05,,---,0.04,VWS V14.01,2013-11-17 05:57:00,
2013-11-17 01:00:00,49.6,48.2,29.54,SSE,163,8.0,35.0,95,0.05,,---,0.04,VWS V14.01,2013-11-17 06:00:00,
2013-11-17 01:02:00,49.6,48.2,29.54,South,179,19.0,19.0,95,0.04,,---,0.04,VWS V14.01,2013-11-17 06:02:00,
2013-11-17 01:07:00,49.6,48.2,29.53,South,174,17.0,32.0,95,0.05,,---,0.05,VWS V14.01,2013-11-17 06:07:00,
2013-11-17 01:12:00,49.5,48.1,29.53,SSE,165,20.0,36.0,95,0.05,,---,0.05,VWS V14.01,2013-11-17 06:12:00,
2013-11-17 01:17:00,49.2,47.8,29.53,SSW,195,21.0,36.0,95,0.06,,---,0.06,VWS V14.01,2013-11-17 06:17:00,
2013-11-17 01:22:00,49.0,47.9,29.53,SSE,156,10.0,36.0,96,0.08,,---,0.08,VWS V14.01,2013-11-17 06:22:00,
2013-11-17 01:27:00,48.9,47.8,29.52,South,177,33.0,36.0,96,0.08,,---,0.08,VWS V14.01,2013-11-17 06:27:00,
2013-11-17 01:30:00,49.0,47.9,29.52,SE,142,13.0,36.0,96,0.08,,---,0.08,VWS V14.01,2013-11-17 06:30:00,
2013-11-17 01:32:00,49.0,47.9,29.52,SSE,155,7.0,16.0,96,0.05,,---,0.08,VWS V14.01,2013-11-17 06:32:00,
2013-11-17 01:37:00,49.1,48.0,29.52,South,176,9.0,33.0,96,0.05,,---,0.08,VWS V14.01,2013-11-17 06:37:00,
2013-11-17 01:42:00,49.2,48.1,29.52,South,182,6.0,33.0,96,0.05,,---,0.08,VWS V14.01,2013-11-17 06:42:00,
2013-11-17 01:47:00,49.1,48.0,29.52,South,176,16.0,33.0,96,0.05,,---,0.08,VWS V14.01,2013-11-17 06:47:00,
2013-11-17 01:52:00,48.9,47.8,29.52,SSE,165,5.0,33.0,96,0.05,,---,0.08,VWS V14.01,2013-11-17 06:52:00,
2013-11-17 01:57:00,48.9,47.8,29.52,South,176,23.0,33.0,96,0.05,,---,0.08,VWS V14.01,2013-11-17 06:57:00,
2013-11-17 02:00:00,49.1,48.3,29.52,South,180,17.0,33.0,97,0.05,,---,0.08,VWS V14.01,2013-11-17 07:00:00,
2013-11-17 02:02:00,49.2,48.4,29.52,SSE,152,9.0,22.0,97,0.04,,---,0.08,VWS V14.01,2013-11-17 07:02:00,
2013-11-17 02:07:00,49.4,48.6,29.52,South,187,12.0,22.0,97,0.04,,---,0.08,VWS V14.01,2013-11-17 07:07:00,
2013-11-17 02:12:00,49.8,49.0,29.52,South,191,16.0,27.0,97,0.04,,---,0.08,VWS V14.01,2013-11-17 07:12:00,
2013-11-17 02:17:00,49.9,49.1,29.52,South,174,12.0,27.0,97,0.04,,---,0.08,VWS V14.01,2013-11-17 07:17:00,
2013-11-17 02:22:00,49.9,48.8,29.52,South,183,18.0,27.0,96,0.04,,---,0.08,VWS V14.01,2013-11-17 07:22:00,
2013-11-17 02:27:00,49.9,48.8,29.52,SE,141,5.0,27.0,96,0.04,,---,0.08,VWS V14.01,2013-11-17 07:27:00,
2013-11-17 02:30:00,50.0,48.9,29.51,South,174,17.0,27.0,96,0.04,,---,0.08,VWS V14.01,2013-11-17 07:30:00,
2013-11-17 02:32:00,49.9,48.8,29.51,SE,144,5.0,21.0,96,0.00,,---,0.08,VWS V14.01,2013-11-17 07:32:00,
2013-11-17 02:37:00,49.9,48.8,29.51,South,181,14.0,26.0,96,0.00,,---,0.08,VWS V14.01,2013-11-17 07:37:00,
2013-11-17 02:42:00,49.9,48.8,29.51,SSE,154,7.0,26.0,96,0.00,,---,0.08,VWS V14.01,2013-11-17 07:42:00,
2013-11-17 02:47:00,50.0,48.9,29.51,SE,144,5.0,26.0,96,0.00,,---,0.08,VWS V14.01,2013-11-17 07:47:00,
2013-11-17 02:52:00,50.1,49.0,29.51,SSE,166,6.0,26.0,96,0.00,,---,0.08,VWS V14.01,2013-11-17 07:52:00,
2013-11-17 02:57:00,50.3,49.2,29.51,South,185,19.0,29.0,96,0.00,,---,0.08,VWS V14.01,2013-11-17 07:57:00,
2013-11-17 03:00:00,50.5,49.4,29.51,SSE,167,12.0,29.0,96,0.00,,---,0.08,VWS V14.01,2013-11-17 08:00:00,
2013-11-17 03:02:00,50.5,49.4,29.51,South,171,14.0,19.0,96,0.00,,---,0.08,VWS V14.01,2013-11-17 08:02:00,
2013-11-17 03:08:00,50.6,49.5,29.50,South,185,12.0,23.0,96,0.00,,---,0.08,VWS V14.01,2013-11-17 08:08:00,
2013-11-17 03:13:00,50.8,49.7,29.50,SSE,162,11.0,26.0,96,0.00,,---,0.08,VWS V14.01,2013-11-17 08:13:00,
2013-11-17 03:18:00,50.9,49.8,29.50,SSW,192,24.0,27.0,96,0.00,,---,0.08,VWS V14.01,2013-11-17 08:18:00,
2013-11-17 03:23:00,51.0,49.9,29.50,South,187,21.0,27.0,96,0.00,,---,0.08,VWS V14.01,2013-11-17 08:23:00,
2013-11-17 03:28:00,51.0,49.9,29.50,South,181,14.0,28.0,96,0.00,,---,0.08,VWS V14.01,2013-11-17 08:28:00,
2013-11-17 03:30:00,51.1,50.0,29.50,South,177,6.0,28.0,96,0.00,,---,0.08,VWS V14.01,2013-11-17 08:30:00,
2013-11-17 03:33:00,51.1,50.0,29.50,South,172,11.0,19.0,96,0.00,,---,0.08,VWS V14.01,2013-11-17 08:33:00,
2013-11-17 03:38:00,51.2,50.1,29.50,South,185,16.0,23.0,96,0.00,,---,0.08,VWS V14.01,2013-11-17 08:38:00,
2013-11-17 03:43:00,51.2,50.1,29.50,SE,146,5.0,32.0,96,0.00,,---,0.08,VWS V14.01,2013-11-17 08:43:00,
2013-11-17 03:48:00,51.1,50.0,29.50,SSE,165,24.0,32.0,96,0.00,,---,0.08,VWS V14.01,2013-11-17 08:48:00,
2013-11-17 03:53:00,51.2,50.1,29.51,South,177,11.0,32.0,96,0.00,,---,0.08,VWS V14.01,2013-11-17 08:53:00,
2013-11-17 03:58:00,51.3,50.2,29.51,SSE,156,8.0,32.0,96,0.00,,---,0.08,VWS V14.01,2013-11-17 08:58:00,
2013-11-17 04:00:00,51.3,50.2,29.51,South,172,13.0,32.0,96,0.00,,---,0.08,VWS V14.01,2013-11-17 09:00:00,
2013-11-17 04:03:00,51.3,50.2,29.51,South,189,19.0,22.0,96,0.00,,---,0.08,VWS V14.01,2013-11-17 09:03:00,
2013-11-17 04:08:00,51.5,50.4,29.51,South,178,18.0,22.0,96,0.00,,---,0.08,VWS V14.01,2013-11-17 09:08:00,
2013-11-17 04:13:00,51.5,50.4,29.51,South,181,19.0,22.0,96,0.00,,---,0.08,VWS V14.01,2013-11-17 09:13:00,
2013-11-17 04:18:00,51.5,50.4,29.51,SSW,194,12.0,22.0,96,0.00,,---,0.08,VWS V14.01,2013-11-17 09:18:00,
2013-11-17 04:23:00,51.5,50.4,29.51,South,183,18.0,22.0,96,0.00,,---,0.08,VWS V14.01,2013-11-17 09:23:00,
2013-11-17 04:28:00,51.6,50.5,29.51,SSE,155,7.0,24.0,96,0.00,,---,0.08,VWS V14.01,2013-11-17 09:28:00,
2013-11-17 04:30:00,51.6,50.5,29.51,South,170,4.0,24.0,96,0.00,,---,0.08,VWS V14.01,2013-11-17 09:30:00,
2013-11-17 04:33:00,51.7,50.6,29.51,South,181,12.0,21.0,96,0.00,,---,0.08,VWS V14.01,2013-11-17 09:33:00,
2013-11-17 04:38:00,51.9,50.8,29.51,SSW,196,14.0,24.0,96,0.00,,---,0.08,VWS V14.01,2013-11-17 09:38:00,
2013-11-17 04:43:00,51.9,50.8,29.51,South,174,17.0,24.0,96,0.00,,---,0.08,VWS V14.01,2013-11-17 09:43:00,
2013-11-17 04:48:00,52.1,51.0,29.51,South,177,23.0,24.0,96,0.00,,---,0.08,VWS V14.01,2013-11-17 09:48:00,
2013-11-17 04:53:00,52.2,51.1,29.51,South,181,13.0,24.0,96,0.00,,---,0.08,VWS V14.01,2013-11-17 09:53:00,
2013-11-17 04:58:00,52.3,51.2,29.51,South,174,5.0,24.0,96,0.00,,---,0.08,VWS V14.01,2013-11-17 09:58:00,
2013-11-17 05:00:00,52.3,51.2,29.51,SSE,149,12.0,24.0,96,0.00,,---,0.08,VWS V14.01,2013-11-17 10:00:00,
2013-11-17 05:03:00,52.3,51.2,29.52,South,184,9.0,12.0,96,0.00,,---,0.08,VWS V14.01,2013-11-17 10:03:00,
2013-11-17 05:08:00,52.3,51.2,29.52,South,178,12.0,20.0,96,0.00,,---,0.08,VWS V14.01,2013-11-17 10:08:00,
2013-11-17 05:13:00,52.3,51.2,29.52,South,171,7.0,20.0,96,0.00,,---,0.08,VWS V14.01,2013-11-17 10:13:00,
2013-11-17 05:18:00,52.3,50.9,29.51,South,183,5.0,20.0,95,0.00,,---,0.08,VWS V14.01,2013-11-17 10:18:00,
2013-11-17 05:23:00,52.4,51.3,29.51,South,183,4.0,20.0,96,0.00,,---,0.08,VWS V14.01,2013-11-17 10:23:00,
2013-11-17 05:28:00,52.4,51.0,29.51,SSE,167,8.0,20.0,95,0.00,,---,0.08,VWS V14.01,2013-11-17 10:28:00,
2013-11-17 05:30:00,52.4,51.0,29.50,SE,135,6.0,20.0,95,0.00,,---,0.08,VWS V14.01,2013-11-17 10:30:00,
2013-11-17 05:33:00,52.4,51.0,29.50,SSE,151,4.0,17.0,95,0.00,,---,0.08,VWS V14.01,2013-11-17 10:33:00,
2013-11-17 05:38:00,52.4,51.0,29.51,SSE,163,20.0,21.0,95,0.00,,---,0.08,VWS V14.01,2013-11-17 10:38:00,
2013-11-17 05:43:00,52.3,51.2,29.51,South,172,5.0,21.0,96,0.00,,---,0.08,VWS V14.01,2013-11-17 10:43:00,
2013-11-17 05:48:00,52.3,51.2,29.50,South,171,12.0,21.0,96,0.00,,---,0.08,VWS V14.01,2013-11-17 10:48:00,
2013-11-17 05:53:00,52.4,51.3,29.50,South,181,13.0,21.0,96,0.00,,---,0.08,VWS V14.01,2013-11-17 10:53:00,
2013-11-17 05:58:00,52.3,51.2,29.51,SSE,153,3.0,21.0,96,0.00,,---,0.08,VWS V14.01,2013-11-17 10:58:00,
2013-11-17 06:00:00,52.4,51.3,29.50,South,176,11.0,21.0,96,0.00,,---,0.08,VWS V14.01,2013-11-17 11:00:00,
2013-11-17 06:03:00,52.5,51.4,29.50,South,174,5.0,14.0,96,0.00,,---,0.08,VWS V14.01,2013-11-17 11:03:00,
2013-11-17 06:08:00,52.6,51.5,29.50,South,173,9.0,19.0,96,0.00,,---,0.08,VWS V14.01,2013-11-17 11:08:00,
2013-11-17 06:13:00,52.6,51.5,29.51,SSE,165,2.0,19.0,96,0.00,,---,0.08,VWS V14.01,2013-11-17 11:13:00,
2013-11-17 06:18:00,52.6,51.5,29.50,South,180,15.0,26.0,96,0.00,,---,0.08,VWS V14.01,2013-11-17 11:18:00,
2013-11-17 06:23:00,52.6,51.5,29.50,SE,133,2.0,26.0,96,0.00,,---,0.08,VWS V14.01,2013-11-17 11:23:00,
2013-11-17 06:28:00,52.6,51.5,29.50,SSE,165,7.0,26.0,96,0.00,,---,0.08,VWS V14.01,2013-11-17 11:28:00,
2013-11-17 06:30:00,52.7,51.6,29.50,South,175,11.0,26.0,96,0.00,,---,0.08,VWS V14.01,2013-11-17 11:30:00,
2013-11-17 06:33:00,52.8,51.7,29.50,South,183,5.0,24.0,96,0.00,,---,0.08,VWS V14.01,2013-11-17 11:33:00,
2013-11-17 06:38:00,53.0,51.9,29.50,SSW,200,5.0,25.0,96,0.00,,---,0.08,VWS V14.01,2013-11-17 11:38:00,
2013-11-17 06:43:00,53.0,51.9,29.50,South,173,8.0,25.0,96,0.00,,---,0.08,VWS V14.01,2013-11-17 11:43:00,
2013-11-17 06:48:00,53.0,51.9,29.49,South,185,21.0,25.0,96,0.00,,---,0.08,VWS V14.01,2013-11-17 11:48:00,
2013-11-17 06:53:00,53.0,51.9,29.49,South,183,5.0,25.0,96,0.00,,---,0.08,VWS V14.01,2013-11-17 11:53:00,
2013-11-17 06:58:00,53.0,51.9,29.49,SSE,158,4.0,25.0,96,0.00,,---,0.08,VWS V14.01,2013-11-17 11:58:00,
2013-11-17 07:00:00,53.0,51.9,29.49,South,176,15.0,25.0,96,0.00,,---,0.08,VWS V14.01,2013-11-17 12:00:00,
2013-11-17 07:03:00,53.0,51.9,29.49,South,177,10.0,16.0,96,0.00,,---,0.08,VWS V14.01,2013-11-17 12:03:00,
2013-11-17 07:08:00,53.0,51.9,29.49,SSE,160,14.0,25.0,96,0.00,,---,0.08,VWS V14.01,2013-11-17 12:08:00,
2013-11-17 07:13:00,53.0,51.9,29.49,SSW,192,22.0,26.0,96,0.00,,---,0.08,VWS V14.01,2013-11-17 12:13:00,
2013-11-17 07:18:00,53.0,51.9,29.48,South,177,10.0,26.0,96,0.00,,---,0.08,VWS V14.01,2013-11-17 12:18:00,
2013-11-17 07:23:00,53.1,52.0,29.49,SSE,168,17.0,26.0,96,0.00,,---,0.08,VWS V14.01,2013-11-17 12:23:00,
2013-11-17 07:28:00,53.1,52.0,29.48,South,175,11.0,26.0,96,0.00,,---,0.08,VWS V14.01,2013-11-17 12:28:00,
2013-11-17 07:30:00,53.1,52.0,29.48,SE,137,18.0,26.0,96,0.00,,---,0.08,VWS V14.01,2013-11-17 12:30:00,
2013-11-17 07:33:00,53.2,52.1,29.48,SE,141,7.0,18.0,96,0.00,,---,0.08,VWS V14.01,2013-11-17 12:33:00,
2013-11-17 07:38:00,53.3,52.2,29.48,SSE,160,20.0,22.0,96,0.00,,---,0.08,VWS V14.01,2013-11-17 12:38:00,
2013-11-17 07:43:00,53.5,52.4,29.47,South,183,14.0,24.0,96,0.00,,---,0.08,VWS V14.01,2013-11-17 12:43:00,
2013-11-17 07:48:00,53.5,52.4,29.48,SSW,192,14.0,24.0,96,0.00,,---,0.08,VWS V14.01,2013-11-17 12:48:00,
2013-11-17 07:53:00,53.7,52.6,29.48,SSE,167,10.0,24.0,96,0.00,,---,0.08,VWS V14.01,2013-11-17 12:53:00,
2013-11-17 07:58:00,53.7,52.6,29.48,South,184,16.0,25.0,96,0.00,,---,0.08,VWS V14.01,2013-11-17 12:58:00,
2013-11-17 08:00:00,53.7,52.6,29.47,SSW,192,17.0,25.0,96,0.00,,---,0.08,VWS V14.01,2013-11-17 13:00:00,
2013-11-17 08:03:00,53.7,52.6,29.47,South,176,22.0,22.0,96,0.00,,---,0.08,VWS V14.01,2013-11-17 13:03:00,
2013-11-17 08:08:00,53.6,52.5,29.47,SSE,156,8.0,22.0,96,0.00,,---,0.08,VWS V14.01,2013-11-17 13:08:00,
2013-11-17 08:14:00,53.6,52.5,29.47,SSW,194,5.0,22.0,96,0.00,,---,0.08,VWS V14.01,2013-11-17 13:14:00,
2013-11-17 08:19:00,53.5,52.4,29.47,South,181,4.0,22.0,96,0.00,,---,0.08,VWS V14.01,2013-11-17 13:19:00,
2013-11-17 08:24:00,53.5,52.4,29.47,SSW,199,11.0,22.0,96,0.00,,---,0.08,VWS V14.01,2013-11-17 13:24:00,
2013-11-17 08:29:00,53.5,52.4,29.47,SSE,164,8.0,22.0,96,0.00,,---,0.08,VWS V14.01,2013-11-17 13:29:00,
2013-11-17 08:30:00,53.5,52.4,29.47,South,182,6.0,23.0,96,0.00,,---,0.08,VWS V14.01,2013-11-17 13:30:00,
2013-11-17 08:34:00,53.5,52.4,29.47,SSW,210,10.0,24.0,96,0.00,,---,0.08,VWS V14.01,2013-11-17 13:34:00,
2013-11-17 08:38:00,53.5,52.4,29.47,South,187,13.0,24.0,96,0.00,,---,0.08,VWS V14.01,2013-11-17 13:38:00,
2013-11-17 08:43:00,53.5,52.4,29.47,South,181,18.0,24.0,96,0.00,,---,0.08,VWS V14.01,2013-11-17 13:43:00,
2013-11-17 08:48:00,53.5,52.4,29.47,South,180,10.0,24.0,96,0.00,,---,0.08,VWS V14.01,2013-11-17 13:48:00,
2013-11-17 08:53:00,53.6,52.5,29.47,South,177,18.0,24.0,96,0.00,,---,0.08,VWS V14.01,2013-11-17 13:53:00,
2013-11-17 08:58:00,53.7,52.9,29.47,SSW,192,18.0,24.0,97,0.00,,---,0.08,VWS V14.01,2013-11-17 13:58:00,
2013-11-17 09:00:00,53.9,53.1,29.47,SSW,195,12.0,24.0,97,0.00,,---,0.08,VWS V14.01,2013-11-17 14:00:00,
2013-11-17 09:03:00,53.9,53.1,29.47,SSW,196,17.0,17.0,97,0.00,,---,0.08,VWS V14.01,2013-11-17 14:03:00,
2013-11-17 09:08:00,54.1,53.0,29.47,South,184,9.0,21.0,96,0.00,,---,0.08,VWS V14.01,2013-11-17 14:08:00,
2013-11-17 09:14:00,54.2,53.1,29.47,South,172,11.0,22.0,96,0.00,,---,0.08,VWS V14.01,2013-11-17 14:14:00,
2013-11-17 09:19:00,54.4,53.3,29.46,South,183,11.0,23.0,96,0.00,,---,0.08,VWS V14.01,2013-11-17 14:19:00,
2013-11-17 09:24:00,54.5,53.4,29.47,SSW,192,10.0,23.0,96,0.00,,---,0.08,VWS V14.01,2013-11-17 14:24:00,
2013-11-17 09:29:00,54.4,53.3,29.46,South,182,9.0,23.0,96,0.00,,---,0.08,VWS V14.01,2013-11-17 14:29:00,
2013-11-17 09:30:00,54.4,53.3,29.46,SSE,166,11.0,23.0,96,0.00,,---,0.08,VWS V14.01,2013-11-17 14:30:00,
2013-11-17 09:34:00,54.4,53.3,29.46,South,171,10.0,16.0,96,0.00,,---,0.08,VWS V14.01,2013-11-17 14:34:00,
2013-11-17 09:39:00,54.5,53.4,29.45,SE,130,11.0,21.0,96,0.00,,---,0.08,VWS V14.01,2013-11-17 14:39:00,
2013-11-17 09:44:00,54.6,53.5,29.45,South,183,12.0,21.0,96,0.00,,---,0.08,VWS V14.01,2013-11-17 14:44:00,
2013-11-17 09:49:00,54.8,53.7,29.45,South,186,10.0,22.0,96,0.00,,---,0.08,VWS V14.01,2013-11-17 14:49:00,
2013-11-17 09:54:00,54.9,53.8,29.45,South,177,11.0,22.0,96,0.00,,---,0.08,VWS V14.01,2013-11-17 14:54:00,
2013-11-17 09:59:00,54.9,53.8,29.45,South,181,6.0,22.0,96,0.00,,---,0.08,VWS V14.01,2013-11-17 14:59:00,
2013-11-17 10:00:00,55.0,53.9,29.45,South,185,7.0,22.0,96,0.00,,---,0.08,VWS V14.01,2013-11-17 15:00:00,
2013-11-17 10:04:00,55.0,53.9,29.45,South,173,1.0,19.0,96,0.00,,---,0.08,VWS V14.01,2013-11-17 15:04:00,
2013-11-17 10:09:00,55.1,54.0,29.44,South,174,7.0,21.0,96,0.00,,---,0.08,VWS V14.01,2013-11-17 15:09:00,
2013-11-17 10:14:00,55.0,53.6,29.44,South,177,18.0,21.0,95,0.00,,---,0.08,VWS V14.01,2013-11-17 15:14:00,
2013-11-17 10:19:00,54.8,53.7,29.44,South,175,7.0,21.0,96,0.00,,---,0.08,VWS V14.01,2013-11-17 15:19:00,
2013-11-17 10:24:00,54.9,53.8,29.45,South,174,13.0,21.0,96,0.00,,---,0.08,VWS V14.01,2013-11-17 15:24:00,
2013-11-17 10:29:00,54.9,53.8,29.44,South,178,12.0,21.0,96,0.00,,---,0.08,VWS V14.01,2013-11-17 15:29:00,
2013-11-17 10:30:00,54.9,53.8,29.44,South,172,5.0,21.0,96,0.00,,---,0.08,VWS V14.01,2013-11-17 15:30:00,
2013-11-17 10:34:00,54.9,53.8,29.44,SE,144,5.0,15.0,96,0.00,,---,0.08,VWS V14.01,2013-11-17 15:34:00,
2013-11-17 10:39:00,54.8,53.7,29.43,SSE,165,17.0,17.0,96,0.00,,---,0.08,VWS V14.01,2013-11-17 15:39:00,
2013-11-17 10:44:00,54.6,53.5,29.42,ESE,121,4.0,18.0,96,0.00,,---,0.08,VWS V14.01,2013-11-17 15:44:00,
2013-11-17 10:49:00,54.6,53.5,29.42,SSE,160,6.0,18.0,96,0.00,,---,0.08,VWS V14.01,2013-11-17 15:49:00,
2013-11-17 10:54:00,54.5,53.4,29.42,SSE,167,3.0,18.0,96,0.00,,---,0.08,VWS V14.01,2013-11-17 15:54:00,
2013-11-17 10:59:00,54.5,53.4,29.42,SSE,168,3.0,18.0,96,0.00,,---,0.08,VWS V14.01,2013-11-17 15:59:00,
2013-11-17 11:00:00,54.5,53.4,29.42,SSE,165,7.0,18.0,96,0.00,,---,0.08,VWS V14.01,2013-11-17 16:00:00,
2013-11-17 11:04:00,54.6,53.5,29.41,SSE,167,4.0,16.0,96,0.00,,---,0.08,VWS V14.01,2013-11-17 16:04:00,
2013-11-17 11:09:00,54.7,53.6,29.42,SSE,163,11.0,16.0,96,0.00,,---,0.08,VWS V14.01,2013-11-17 16:09:00,
2013-11-17 11:14:00,54.8,54.0,29.41,South,175,14.0,16.0,97,0.00,,---,0.08,VWS V14.01,2013-11-17 16:14:00,
2013-11-17 11:19:00,54.9,54.1,29.40,South,169,2.0,18.0,97,0.00,,---,0.08,VWS V14.01,2013-11-17 16:19:00,
2013-11-17 11:24:00,55.0,54.2,29.39,SSE,160,9.0,18.0,97,0.00,,---,0.08,VWS V14.01,2013-11-17 16:24:00,
2013-11-17 11:29:00,54.9,54.1,29.39,SSE,161,8.0,18.0,97,0.00,,---,0.08,VWS V14.01,2013-11-17 16:29:00,
2013-11-17 11:30:00,54.8,53.7,29.39,SSE,161,0.0,18.0,96,0.00,,---,0.08,VWS V14.01,2013-11-17 16:30:00,
2013-11-17 11:34:00,54.8,53.7,29.39,SE,146,6.0,13.0,96,0.00,,---,0.08,VWS V14.01,2013-11-17 16:34:00,
2013-11-17 11:39:00,54.7,53.6,29.38,SSE,147,4.0,16.0,96,0.01,,---,0.09,VWS V14.01,2013-11-17 16:39:00,
2013-11-17 11:44:00,54.5,53.7,29.38,SSE,152,1.0,16.0,97,0.03,,---,0.11,VWS V14.01,2013-11-17 16:44:00,
2013-11-17 11:49:00,54.3,53.5,29.37,SSE,160,7.0,16.0,97,0.07,,---,0.15,VWS V14.01,2013-11-17 16:49:00,
2013-11-17 11:54:00,54.1,53.3,29.36,SSE,150,5.0,16.0,97,0.07,,---,0.15,VWS V14.01,2013-11-17 16:54:00,
2013-11-17 11:59:00,53.9,53.1,29.36,SSE,151,4.0,16.0,97,0.07,,---,0.15,VWS V14.01,2013-11-17 16:59:00,
2013-11-17 12:00:00,53.8,53.0,29.35,SSE,151,12.0,16.0,97,0.07,,---,0.15,VWS V14.01,2013-11-17 17:00:00,
2013-11-17 12:04:00,53.7,52.9,29.35,SSE,161,4.0,12.0,97,0.07,,---,0.15,VWS V14.01,2013-11-17 17:04:00,
2013-11-17 12:09:00,53.5,52.7,29.34,SSE,168,5.0,12.0,97,0.07,,---,0.15,VWS V14.01,2013-11-17 17:09:00,
2013-11-17 12:14:00,53.5,52.7,29.33,SSE,160,2.0,12.0,97,0.07,,---,0.15,VWS V14.01,2013-11-17 17:14:00,
2013-11-17 12:19:00,53.5,53.0,29.33,SSE,163,8.0,15.0,98,0.08,,---,0.16,VWS V14.01,2013-11-17 17:19:00,
2013-11-17 12:24:00,53.6,53.0,29.33,South,182,16.0,16.0,98,0.08,,---,0.16,VWS V14.01,2013-11-17 17:24:00,
2013-11-17 12:29:00,53.6,53.0,29.33,SSE,152,4.0,22.0,98,0.09,,---,0.17,VWS V14.01,2013-11-17 17:29:00,
2013-11-17 12:30:00,53.7,53.2,29.33,South,175,11.0,22.0,98,0.09,,---,0.17,VWS V14.01,2013-11-17 17:30:00,
2013-11-17 12:34:00,53.7,53.2,29.33,South,172,4.0,15.0,98,0.09,,---,0.17,VWS V14.01,2013-11-17 17:34:00,
2013-11-17 12:39:00,53.8,53.2,29.32,SE,141,4.0,16.0,98,0.10,,---,0.18,VWS V14.01,2013-11-17 17:39:00,
2013-11-17 12:44:00,53.9,53.3,29.31,SE,132,10.0,16.0,98,0.11,,---,0.19,VWS V14.01,2013-11-17 17:44:00,
2013-11-17 12:49:00,53.9,53.3,29.31,SSE,158,5.0,17.0,98,0.12,,---,0.20,VWS V14.01,2013-11-17 17:49:00,
2013-11-17 12:54:00,53.7,53.2,29.29,SE,134,9.0,18.0,98,0.15,,---,0.23,VWS V14.01,2013-11-17 17:54:00,
2013-11-17 13:00:00,53.6,53.0,29.29,SSE,159,7.0,18.0,98,0.17,,---,0.25,VWS V14.01,2013-11-17 18:00:00,
2013-11-17 13:05:00,53.6,53.0,29.28,SE,133,3.0,13.0,98,0.13,,---,0.28,VWS V14.01,2013-11-17 18:05:00,
2013-11-17 13:10:00,53.7,53.2,29.28,SSE,160,20.0,20.0,98,0.15,,---,0.30,VWS V14.01,2013-11-17 18:10:00,
2013-11-17 13:15:00,53.6,53.0,29.26,SSE,160,16.0,20.0,98,0.18,,---,0.33,VWS V14.01,2013-11-17 18:15:00,
2013-11-17 13:20:00,53.6,53.0,29.26,SE,142,6.0,20.0,98,0.19,,---,0.35,VWS V14.01,2013-11-17 18:20:00,
2013-11-17 13:25:00,53.6,53.0,29.26,SE,146,12.0,20.0,98,0.20,,---,0.35,VWS V14.01,2013-11-17 18:25:00,
2013-11-17 13:30:00,53.6,53.0,29.25,SSE,154,16.0,21.0,98,0.22,,---,0.37,VWS V14.01,2013-11-17 18:30:00,
2013-11-17 13:35:00,53.7,53.2,29.24,South,173,11.0,16.0,98,0.20,,---,0.37,VWS V14.01,2013-11-17 18:35:00,
2013-11-17 13:40:00,53.8,53.2,29.23,ESE,117,7.0,17.0,98,0.23,,---,0.40,VWS V14.01,2013-11-17 18:40:00,
2013-11-17 13:45:00,53.9,53.3,29.23,SE,134,8.0,22.0,98,0.25,,---,0.42,VWS V14.01,2013-11-17 18:45:00,
2013-11-17 13:50:00,53.9,53.3,29.22,SSE,163,7.0,22.0,98,0.25,,---,0.42,VWS V14.01,2013-11-17 18:50:00,
2013-11-17 13:55:00,54.1,53.5,29.22,SSE,160,6.0,26.0,98,0.25,,---,0.42,VWS V14.01,2013-11-17 18:55:00,
2013-11-17 14:00:00,54.3,53.8,29.21,SE,146,6.0,26.0,98,0.26,,---,0.43,VWS V14.01,2013-11-17 19:00:00,
2013-11-17 14:05:00,54.0,53.5,29.20,SSE,148,12.0,25.0,98,0.17,,---,0.43,VWS V14.01,2013-11-17 19:05:00,
2013-11-17 14:10:00,53.8,53.2,29.20,ESE,118,23.0,27.0,98,0.17,,---,0.43,VWS V14.01,2013-11-17 19:10:00,
2013-11-17 14:15:00,53.7,53.2,29.18,SSE,152,13.0,27.0,98,0.17,,---,0.43,VWS V14.01,2013-11-17 19:15:00,
2013-11-17 14:20:00,53.5,53.0,29.18,SSE,162,9.0,32.0,98,0.17,,---,0.43,VWS V14.01,2013-11-17 19:20:00,
2013-11-17 14:25:00,53.3,52.8,29.17,SSE,156,9.0,32.0,98,0.17,,---,0.43,VWS V14.01,2013-11-17 19:25:00,
2013-11-17 14:30:00,53.3,52.8,29.17,SSE,153,17.0,32.0,98,0.17,,---,0.43,VWS V14.01,2013-11-17 19:30:00,
2013-11-17 14:35:00,53.3,52.8,29.16,SSE,162,6.0,25.0,98,0.06,,---,0.43,VWS V14.01,2013-11-17 19:35:00,
2013-11-17 15:00:00,54.4,53.6,29.15,SSE,159,15.0,38.0,97,0.06,,---,0.43,VWS V14.01,2013-11-17 20:00:00,
2013-11-17 15:30:00,54.5,53.7,29.12,SSE,156,2.0,36.0,97,0.00,,---,0.43,VWS V14.01,2013-11-17 20:30:00,
2013-11-17 16:00:00,54.7,53.6,29.11,South,182,31.0,33.0,96,0.00,,---,0.43,VWS V14.01,2013-11-17 21:00:00,
2013-11-17 16:30:00,54.1,53.3,29.09,SSE,158,15.0,42.0,97,0.00,,---,0.43,VWS V14.01,2013-11-17 21:30:00,
2013-11-17 17:00:00,54.6,53.5,29.10,South,180,16.0,42.0,96,0.10,,---,0.53,VWS V14.01,2013-11-17 22:00:00,
2013-11-17 17:30:00,52.9,52.1,29.08,South,180,10.0,26.0,97,0.22,,---,0.65,VWS V14.01,2013-11-17 22:30:00,
2013-11-17 18:00:00,52.0,51.2,29.04,SE,135,1.0,10.0,97,0.25,,---,0.68,VWS V14.01,2013-11-17 23:00:00,
2013-11-17 18:30:00,51.7,51.2,29.02,SE,135,2.0,12.0,98,0.31,,---,0.84,VWS V14.01,2013-11-17 23:30:00,
2013-11-17 19:00:00,51.8,51.3,28.98,SSE,158,2.0,13.0,98,0.26,,---,0.91,VWS V14.01,2013-11-18 00:00:00,
2013-11-17 19:30:00,51.8,51.3,28.92,East,90,3.0,9.0,98,0.25,,---,0.93,VWS V14.01,2013-11-18 00:30:00,
2013-11-17 20:00:00,51.9,51.6,28.92,South,180,5.0,14.0,99,0.10,,---,0.94,VWS V14.01,2013-11-18 01:00:00,
2013-11-17 20:30:00,52.3,51.8,28.90,South,180,7.0,17.0,98,0.06,,---,0.97,VWS V14.01,2013-11-18 01:30:00,
2013-11-17 21:00:00,52.2,51.7,28.86,South,180,5.0,17.0,98,0.05,,---,0.98,VWS V14.01,2013-11-18 02:00:00,
2013-11-17 21:30:00,51.8,51.3,28.87,SSE,158,4.0,18.0,98,0.05,,---,0.99,VWS V14.01,2013-11-18 02:30:00,
2013-11-17 22:00:00,51.1,50.6,28.88,South,180,9.0,24.0,98,0.03,,---,1.00,VWS V14.01,2013-11-18 03:00:00,
2013-11-17 22:30:00,46.7,45.1,28.89,West,270,23.0,41.0,94,0.10,,---,1.08,VWS V14.01,2013-11-18 03:30:00,
2013-11-17 23:00:00,45.4,43.8,28.91,SW,225,38.0,52.0,94,0.12,,---,1.11,VWS V14.01,2013-11-18 04:00:00,
2013-11-17 23:30:00,45.6,43.4,28.95,SW,225,40.0,57.0,92,0.16,,---,1.16,VWS V14.01,2013-11-18 04:30:00,